Погода в Родниковом

Россия / Приморский край     45°09′53″N   133°23′38″E
темп.,
°C
ветер,
м/с
пор.,
м/с
влажн.,
%
обл.,
%
осадки,
мм/ч
давл.,
гПа
погр.,
м
16 июня, ср
ср1601:00+13ююз11965 0.0 100915
04:00+12ююз119712 0.0 100919
07:00+15ююз139111 0.0 1010159
10:00+20ююз33703 0.0 1010680
13:00+24юз22580 0.0 1008958
16:00+26ююз23550 0.0 1007929
19:00+24зсз34740 0.0 1006358
22:00+16ю22931 0.0 100731
17 июня, чт
чт1701:00+14зюз23972 0.0 100771
04:00+13юв2296100 0.0 100739
07:00+15юв2494100 0.0 1006143
10:00+20ю3566100 0.0 1005499
13:00+24юз4658100 0.0 10051087
16:00+22зюз4569100 0.0 1004583
19:00+20зюз3880100 0.0 1004440
22:00+16ююз1189100 0.0 100420
18 июня, пт
пт1801:00+15юв1187100 0.0 100214
04:00+12зюз1394100 0.0 100399
07:00+14ююв1289100 0.0 1002101
10:00+19ю2375100 0.0 1001635
13:00+17юз3896100 1.3 1000392
16:00+17ю2491100 2.4 1000422
19:00+16ююв2497100 3.3 1001244
22:00+15вюв2598100 5.1 1001164
19 июня, сб
сб1901:00+14вюв1499100 2.5 1001145
04:00+14вюв229899 3.4 100177
07:00+15вюв1396100 0.0 1001134
10:00+18ююв2483100 0.9 1002637
13:00+19юв3485100 2.9 1002845
16:00+20юв2479100 5.4 10011035
19:00+18вюв2679100 0.4 1001215
22:00+14юв358497 0.4 100386
20 июня, вс
вс2001:00+13ююв2488100 0.2 1005109
04:00+12юв2592100 0.6 1005144
07:00+12вюв2491100 0.1 1006147
10:00+15ю137659 0.1 1007408
13:00+19зюз236378 0.0 10071166
16:00+17св1183100 0.2 1007165
19:00+16в128598 0.2 1007213
22:00+13юв2281100 0.2 100917